| time (UTC) | temp F | wind direction | speed MPH | gust MPH | rain 1hr in | rain 24hr in | rain mn in | humidity % | barometer mb |
| 20260906074529 | 69 | 0 | 0.0 | 0.0 | 0.00 | 0.00 | 0.00 | 1 | 1009.1 |
| 20260906073029 | 69 | 68 | 1.0 | 2.0 | 0.00 | 0.00 | 0.00 | 1 | 1008.9 |
| 20260906071529 | 69 | 0 | 0.0 | 0.0 | 0.00 | 0.00 | 0.00 | 1 | 1009.0 |
| 20260906070029 | 69 | 0 | 0.0 | 0.0 | 0.00 | 0.00 | 0.00 | 1 | 1009.4 |
| 20260906064529 | 69 | 0 | 0.0 | 0.0 | 0.00 | 0.00 | 0.00 | 1 | 1009.7 |
| 20260906063029 | 69 | 0 | 0.0 | 1.0 | 0.00 | 0.00 | 0.00 | 1 | 1009.9 |
| 20260906061529 | 69 | 0 | 0.0 | 0.0 | 0.00 | 0.00 | 0.00 | 1 | 1009.9 |
| 20260906060029 | 70 | 0 | 0.0 | 0.0 | 0.00 | 0.00 | 0.00 | 1 | 1010.1 |
| 20260906054529 | 70 | 68 | 2.0 | 2.0 | 0.00 | 0.00 | 0.00 | 1 | 1010.2 |
| 20260906053029 | 70 | 0 | 0.0 | 0.0 | 0.00 | 0.00 | 0.00 | 1 | 1010.2 |
| 20260906051529 | 70 | 68 | 1.0 | 2.0 | 0.00 | 0.00 | 0.00 | 1 | 1010.2 |
| 20260906050029 | 70 | 0 | 0.0 | 0.0 | 0.00 | 0.00 | 0.00 | 1 | 1010.2 |
| 20260906044529 | 70 | 0 | 0.0 | 0.0 | 0.00 | 0.00 | 0.00 | 1 | 1010.3 |
| 20260906043029 | 71 | 68 | 1.0 | 1.0 | 0.00 | 0.00 | 0.00 | 1 | 1010.0 |
| 20260906041529 | 71 | 0 | 0.0 | 2.0 | 0.00 | 0.00 | 0.00 | 1 | 1010.1 |
| 20260906040029 | 71 | 0 | 0.0 | 0.0 | 0.00 | 0.00 | 0.00 | 1 | 1010.2 |
| 20260906034529 | 71 | 68 | 1.0 | 1.0 | 0.00 | 0.00 | 0.00 | 1 | 1010.4 |
| 20260906033029 | 71 | 68 | 2.0 | 2.0 | 0.00 | 0.00 | 0.00 | 1 | 1010.2 |
| 20260906031529 | 71 | 0 | 0.0 | 0.0 | 0.00 | 0.00 | 0.00 | 1 | 1010.1 |
| 20260906030029 | 71 | 68 | 2.0 | 2.0 | 0.00 | 0.00 | 0.00 | 1 | 1010.2 |
| 20260906024529 | 72 | 68 | 1.0 | 1.0 | 0.00 | 0.00 | 0.00 | 1 | 1010.1 |
| 20260906023029 | 72 | 68 | 1.0 | 1.0 | 0.00 | 0.00 | 0.00 | 1 | 1010.1 |
| 20260906021529 | 72 | 0 | 0.0 | 0.0 | 0.00 | 0.00 | 0.00 | 1 | 1010.2 |
| 20260906020029 | 72 | 68 | 2.0 | 2.0 | 0.00 | 0.00 | 0.00 | 1 | 1010.3 |
| 20260906014529 | 73 | 0 | 0.0 | 0.0 | 0.00 | 0.00 | 0.00 | 1 | 1010.0 |
| 20260906013029 | 73 | 167 | 3.0 | 3.0 | 0.00 | 0.00 | 0.00 | 1 | 1009.9 |
| 20260906011529 | 73 | 0 | 0.0 | 0.0 | 0.00 | 0.00 | 0.00 | 1 | 1009.4 |
| 20260906010029 | 74 | 0 | 0.0 | 0.0 | 0.00 | 0.00 | 0.00 | 1 | 1009.2 |
| 20260906004529 | 75 | 167 | 1.0 | 1.0 | 0.00 | 0.00 | 0.00 | 1 | 1009.2 |
| 20260906003029 | 76 | 0 | 0.0 | 0.0 | 0.00 | 0.00 | 0.00 | 1 | 1009.2 |
| 20260906001529 | 77 | 167 | 1.0 | 1.0 | 0.00 | 0.00 | 0.00 | 1 | 1009.0 |
| 20260906000029 | 79 | 167 | 3.0 | 3.0 | 0.00 | 0.00 | 0.00 | 1 | 1008.9 |
| 20260905234529 | 80 | 0 | 0.0 | 0.0 | 0.00 | 0.00 | 0.00 | 1 | 1008.8 |
| 20260905233029 | 82 | 0 | 0.0 | 1.0 | 0.00 | 0.00 | 0.00 | 16 | 1008.8 |
| 20260905231529 | 83 | 167 | 1.0 | 1.0 | 0.00 | 0.00 | 0.00 | 23 | 1008.7 |
| 20260905230029 | 85 | 167 | 3.0 | 3.0 | 0.00 | 0.00 | 0.00 | 43 | 1008.4 |
| 20260905224529 | 86 | 167 | 1.0 | 3.0 | 0.00 | 0.00 | 0.00 | 54 | 1008.6 |
| 20260905223029 | 88 | 168 | 1.0 | 2.0 | 0.00 | 0.00 | 0.00 | 55 | 1008.7 |
| 20260905221529 | 88 | 169 | 1.0 | 1.0 | 0.00 | 0.00 | 0.00 | 55 | 1008.6 |
| 20260905220029 | 88 | 166 | 3.0 | 4.0 | 0.00 | 0.00 | 0.00 | 55 | 1008.8 |
| 20260905214529 | 88 | 0 | 0.0 | 1.0 | 0.00 | 0.00 | 0.00 | 55 | 1008.8 |
| 20260905213029 | 88 | 190 | 6.0 | 6.0 | 0.00 | 0.00 | 0.00 | 54 | 1008.9 |
| 20260905211529 | 88 | 269 | 2.0 | 2.0 | 0.00 | 0.00 | 0.00 | 54 | 1009.0 |
| 20260905210029 | 88 | 213 | 4.0 | 5.0 | 0.00 | 0.00 | 0.00 | 55 | 1009.1 |
| 20260905204529 | 89 | 223 | 1.0 | 2.0 | 0.00 | 0.00 | 0.00 | 54 | 1009.1 |
| 20260905203029 | 87 | 132 | 1.0 | 1.0 | 0.00 | 0.00 | 0.00 | 54 | 1009.2 |
| 20260905201529 | 86 | 157 | 1.0 | 2.0 | 0.00 | 0.00 | 0.00 | 55 | 1009.3 |
| 20260905200029 | 86 | 190 | 1.0 | 2.0 | 0.00 | 0.00 | 0.00 | 54 | 1009.7 |
| 20260905194529 | 86 | 124 | 2.0 | 3.0 | 0.00 | 0.00 | 0.00 | 54 | 1010.0 |
| 20260905193029 | 86 | 193 | 2.0 | 2.0 | 0.00 | 0.00 | 0.00 | 53 | 1010.1 |
| 20260905191529 | 86 | 128 | 3.0 | 4.0 | 0.00 | 0.00 | 0.00 | 54 | 1010.3 |
| 20260905190029 | 85 | 54 | 5.0 | 9.0 | 0.00 | 0.00 | 0.00 | 50 | 1010.5 |
| 20260905184529 | 84 | 63 | 2.0 | 3.0 | 0.00 | 0.00 | 0.00 | 46 | 1010.8 |
| 20260905183029 | 84 | 128 | 5.0 | 9.0 | 0.00 | 0.00 | 0.00 | 52 | 1011.0 |
| 20260905181529 | 84 | 69 | 4.0 | 4.0 | 0.00 | 0.00 | 0.00 | 48 | 1011.6 |
| 20260905180029 | 83 | 130 | 7.0 | 7.0 | 0.00 | 0.00 | 0.00 | 49 | 1011.8 |
| 20260905174529 | 82 | 115 | 3.0 | 4.0 | 0.00 | 0.00 | 0.00 | 36 | 1012.1 |
| 20260905173029 | 79 | 114 | 6.0 | 7.0 | 0.00 | 0.00 | 0.00 | 27 | 1012.5 |
| 20260905171529 | 80 | 121 | 7.0 | 7.0 | 0.00 | 0.00 | 0.00 | 21 | 1012.9 |
| 20260905170029 | 78 | 55 | 6.0 | 9.0 | 0.00 | 0.00 | 0.00 | 1 | 1012.9 |
| 20260905164529 | 77 | 105 | 1.0 | 3.0 | 0.00 | 0.00 | 0.00 | 5 | 1012.6 |
| 20260905163029 | 78 | 0 | 0.0 | 2.0 | 0.00 | 0.00 | 0.00 | 1 | 1012.3 |
| 20260905161529 | 80 | 347 | 12.0 | 13.0 | 0.00 | 0.00 | 0.00 | 1 | 1012.1 |
| 20260905160029 | 84 | 327 | 6.0 | 10.0 | 0.00 | 0.00 | 0.00 | 1 | 1012.5 |
| 20260905154529 | 87 | 252 | 2.0 | 3.0 | 0.00 | 0.00 | 0.00 | 2 | 1012.2 |
| 20260905153029 | 86 | 0 | 0.0 | 2.0 | 0.00 | 0.00 | 0.00 | 1 | 1012.0 |
| 20260905151529 | 84 | 161 | 2.0 | 2.0 | 0.00 | 0.00 | 0.00 | 1 | 1011.7 |
| 20260905150029 | 83 | 206 | 2.0 | 3.0 | 0.00 | 0.00 | 0.00 | 1 | 1011.7 |
| 20260905144529 | 82 | 190 | 2.0 | 2.0 | 0.00 | 0.00 | 0.00 | 1 | 1011.9 |
| 20260905143029 | 81 | 173 | 1.0 | 2.0 | 0.00 | 0.00 | 0.00 | 1 | 1012.0 |
| 20260905141529 | 81 | 169 | 2.0 | 4.0 | 0.00 | 0.00 | 0.00 | 1 | 1012.1 |
| 20260905140029 | 80 | 165 | 2.0 | 2.0 | 0.00 | 0.00 | 0.00 | 1 | 1012.1 |
| 20260905134529 | 78 | 0 | 0.0 | 2.0 | 0.00 | 0.00 | 0.00 | 1 | 1012.1 |
| 20260905133029 | 76 | 165 | 2.0 | 4.0 | 0.00 | 0.00 | 0.00 | 1 | 1012.1 |
| 20260905131529 | 76 | 239 | 3.0 | 3.0 | 0.00 | 0.00 | 0.00 | 1 | 1012.3 |
| 20260905130029 | 76 | 349 | 1.0 | 1.0 | 0.00 | 0.00 | 0.00 | 1 | 1012.5 |
| 20260905124529 | 75 | 344 | 2.0 | 2.0 | 0.00 | 0.00 | 0.00 | 1 | 1012.7 |
| 20260905123029 | 73 | 0 | 0.0 | 0.0 | 0.00 | 0.00 | 0.00 | 1 | 1012.6 |
| 20260905121529 | 71 | 0 | 0.0 | 0.0 | 0.00 | 0.00 | 0.00 | 1 | 1012.6 |
| 20260905120029 | 70 | 0 | 0.0 | 0.0 | 0.00 | 0.00 | 0.00 | 1 | 1012.3 |
| 20260905114529 | 68 | 0 | 0.0 | 0.0 | 0.00 | 0.00 | 0.00 | 1 | 1012.1 |
| 20260905113029 | 68 | 0 | 0.0 | 0.0 | 0.00 | 0.00 | 0.00 | 1 | 1011.9 |
| 20260905111529 | 69 | 0 | 0.0 | 0.0 | 0.00 | 0.00 | 0.00 | 1 | 1011.7 |
| 20260905110029 | 69 | 0 | 0.0 | 0.0 | 0.00 | 0.00 | 0.00 | 1 | 1011.5 |
| 20260905104529 | 68 | 0 | 0.0 | 0.0 | 0.00 | 0.00 | 0.00 | 1 | 1011.5 |
| 20260905103029 | 68 | 0 | 0.0 | 0.0 | 0.00 | 0.00 | 0.00 | 1 | 1011.4 |
| 20260905101529 | 68 | 0 | 0.0 | 0.0 | 0.00 | 0.00 | 0.00 | 1 | 1011.3 |
| 20260905100029 | 69 | 341 | 1.0 | 1.0 | 0.00 | 0.00 | 0.00 | 1 | 1011.4 |
| 20260905094529 | 69 | 341 | 1.0 | 2.0 | 0.00 | 0.00 | 0.00 | 1 | 1011.3 |
| 20260905093029 | 68 | 0 | 0.0 | 0.0 | 0.00 | 0.00 | 0.00 | 1 | 1011.0 |
| 20260905091529 | 69 | 340 | 1.0 | 2.0 | 0.00 | 0.00 | 0.00 | 1 | 1010.9 |
| 20260905090029 | 69 | 0 | 0.0 | 0.0 | 0.00 | 0.00 | 0.00 | 1 | 1011.0 |
| 20260905084529 | 69 | 0 | 0.0 | 0.0 | 0.00 | 0.00 | 0.00 | 1 | 1011.1 |
| 20260905083029 | 69 | 340 | 1.0 | 1.0 | 0.00 | 0.00 | 0.00 | 1 | 1011.2 |
| 20260905081529 | 70 | 0 | 0.0 | 0.0 | 0.00 | 0.00 | 0.00 | 1 | 1011.2 |
| 20260905080029 | 70 | 0 | 0.0 | 0.0 | 0.00 | 0.00 | 0.00 | 1 | 1011.4 |